* Astronomy

Members Login
Username 
 
Password 
    Remember Me  
Post Info TOPIC: SL-4 rocket body re-entry


L

Posts: 131433
Date:
RE: SL-4 rocket body re-entry
Permalink  
 


Update:
The SL-4 rocket body is re-entered the Earths atmosphere on the 17th July, 2012 @ 11:05 GMT ± 7 minutes.

Inclination: 51.62°
Revolution Number:  38
Predicted Location:   0°N, 49°E



__________________


L

Posts: 131433
Date:
Permalink  
 

Update:
The SL-4 rocket body is predicted to re-enter the Earths atmosphere on the 17th July, 2012 @ 11:30 GMT ± 5 hours.

SL-4 RB
1 38672U 12037B   12199.12767164  .08036519  12404-4  54496-3 0   185
2 38672 051.6210 332.0570 0009616 091.7736 268.9249 16.40365195   334
SL4rocketbodyb.gif
Expand (27kb, 857 x 564)

Period:       88.68 minutes
Inclination: 51.62°
Apogee:     226 km
Perigee:     192 km 
Revolution Number:  38
Predicted Location:   49.5°S, 153°E



__________________


L

Posts: 131433
Date:
Permalink  
 

A SL-4 rocket body that was launched on the 15th July, 2012, from the Baikonur Cosmodrome in Kazakhstan, for the Soyuz TMA-05M mission, is predicted to re-enter the Earths atmosphere on the 17th July, 2012 @ 11:15 GMT ± 15 hours.

SL-4 RB
1 38672U 12037B   12198.45547646  .03797078  12159-4  70466-3 0   159
2 38672 051.6265 335.8426 0019253 091.4937 268.9833 16.30782100   228

Period:       88.68 minutes
Inclination: 51.63°
Apogee:     226 km
Perigee:     192 km 
Revolution Number:  40
Predicted Location:   25.4°S, 68.4°E



__________________
Page 1 of 1  sorted by
 
Quick Reply

Please log in to post quick replies.



Create your own FREE Forum
Report Abuse
Powered by ActiveBoard